Weather History for Stafford, VA

Change the Weather History Date:

Tuesday, October 30, 2012

  Actual Average (KNYG) Record (KNYG)
Temperature  
Mean Temperature 42 °F -  
Max Temperature 44 °F 61 °F 82 °F (1996)
Min Temperature 40 °F 42 °F 30 °F (2008)
Degree Days  
Heating Degree Days 23    
Moisture  
Dew Point 28 °F    
Average Humidity 58    
Maximum Humidity 63    
Minimum Humidity 51    
Precipitation  
Precipitation 0.59 in - - ()
Sea Level Pressure  
Sea Level Pressure 29.26 in    
Wind  
Wind Speed 8 mph (SSW)    
Max Wind Speed 14 mph    
Max Gust Speed 21 mph    
Visibility 9 miles    
Events Rain    
Averages and records for this station are not official NWS values.
T = Trace of Precipitation, MM = Missing Value Source: NWS Daily Summary

Daily Weather History Graph

Daily Weather History Graph

Search for Another Location

Airport:

Trip Planner

Search our weather history database for the weather conditions in past years. The results will help you decide how hot, cold, wet, or windy it might be!

Date:

Astronomy

Oct. 30, 2012 Rise Set
Actual Time 7:34 AM EDT 6:11 PM EDT
Civil Twilight 7:07 AM EDT 6:39 PM EDT
Nautical Twilight 6:35 AM EDT 7:10 PM EDT
Astronomical Twilight 6:05 AM EDT 7:41 PM EDT
Moon 6:41 PM EDT (10/30) 8:18 AM EDT (10/30)
Length of Visible Light 11h 31m
Length of Day
10h 37m
Full, 99% of the Moon is Illuminated
Oct 30
Full
Nov 6
Last Quarter
Nov 13
New
Nov 20
First Quarter
Nov 28
Full

Hourly Weather History & Observations

Time (EDT) Temp. Windchill Dew Point Humidity Pressure Visibility Wind Dir Wind Speed Gust Speed Precip Events Conditions
12:15 AM 44.8 °F 39.9 °F - N/A% 28.88 in 10.0 mi WSW 9.2 mph 17.3 mph 0.01 in Rain Light Rain
12:35 AM 44.8 °F 39.9 °F - N/A% 28.89 in 10.0 mi WSW 9.2 mph - 0.03 in Rain Rain
12:55 AM 44.8 °F 40.4 °F - N/A% 28.89 in 10.0 mi WSW 8.1 mph - 0.05 in Rain Rain
1:15 AM 44.6 °F 40.7 °F - N/A% 28.90 in 10.0 mi SW 6.9 mph - 0.01 in Rain Rain
1:35 AM 44.2 °F 39.7 °F - N/A% 28.91 in 10.0 mi SW 8.1 mph - 0.04 in Rain Rain
1:55 AM 44.1 °F 38.6 °F - N/A% 28.92 in 10.0 mi SSW 10.4 mph - 0.08 in Rain Rain
2:15 AM 43.7 °F 38.1 °F - N/A% 28.93 in 7.0 mi SW 10.4 mph 17.3 mph 0.03 in Rain Rain
2:35 AM 43.7 °F 39.7 °F - N/A% 28.94 in 7.0 mi SSW 6.9 mph 18.4 mph 0.05 in Rain Rain
2:55 AM 43.7 °F 38.1 °F - N/A% 28.95 in 7.0 mi SW 10.4 mph 17.3 mph 0.08 in Rain Rain
3:15 AM 43.7 °F 39.1 °F - N/A% 28.95 in 10.0 mi SSW 8.1 mph - 0.02 in Rain Rain
3:55 AM 43.9 °F 38.8 °F - N/A% 28.97 in 10.0 mi SSW 9.2 mph - 0.05 in Rain Rain
4:15 AM 43.7 °F 39.1 °F - N/A% 28.98 in 10.0 mi SSW 8.1 mph 18.4 mph 0.01 in Rain Light Rain
4:35 AM 43.7 °F 37.3 °F - N/A% 29.00 in 10.0 mi SSW 12.7 mph 17.3 mph 0.03 in Rain Rain
4:55 AM 43.7 °F 39.1 °F - N/A% 29.01 in 10.0 mi SSW 8.1 mph 16.1 mph 0.05 in Rain Rain
5:15 AM 43.3 °F 38.6 °F - N/A% 29.03 in 7.0 mi SSW 8.1 mph - 0.03 in Rain Rain
5:35 AM 43.0 °F 36.4 °F - N/A% 29.05 in 10.0 mi SSW 12.7 mph 20.7 mph 0.06 in Rain Rain
5:55 AM 42.8 °F 35.8 °F - N/A% 29.06 in 10.0 mi SSW 13.8 mph 19.6 mph 0.08 in Rain Rain
6:15 AM 42.4 °F 37.0 °F - N/A% 29.08 in 10.0 mi SSW 9.2 mph 16.1 mph 0.02 in Rain Rain
6:35 AM 42.3 °F 37.3 °F - N/A% 29.09 in 10.0 mi SSW 8.1 mph - 0.04 in Rain Rain
6:55 AM 41.9 °F 35.9 °F - N/A% 29.10 in 10.0 mi SSW 10.4 mph 18.4 mph 0.05 in Rain Light Rain
7:15 AM 41.7 °F 37.3 °F - N/A% 29.12 in 10.0 mi SW 6.9 mph 17.3 mph 0.01 in Rain Light Rain
7:35 AM 41.2 °F 34.5 °F - N/A% 29.14 in 10.0 mi SSW 11.5 mph 18.4 mph 0.02 in Rain Light Rain
7:55 AM 41.2 °F 36.6 °F - N/A% 29.15 in 10.0 mi SW 6.9 mph 16.1 mph 0.03 in Rain Light Rain
8:15 AM 41.2 °F 36.0 °F - N/A% 29.17 in 10.0 mi South 8.1 mph - 0.01 in Rain Light Rain
8:35 AM 40.3 °F 34.9 °F - N/A% 29.19 in 7.0 mi SSW 8.1 mph 19.6 mph 0.02 in Rain Light Rain
8:55 AM 40.3 °F 33.9 °F - N/A% 29.20 in 7.0 mi SSW 10.4 mph 17.3 mph 0.02 in Rain Light Rain
9:15 AM 40.3 °F 34.9 °F - N/A% 29.22 in 7.0 mi SSW 8.1 mph - N/A Rain Light Rain
9:35 AM 40.3 °F 34.9 °F - N/A% 29.23 in 7.0 mi SSW 8.1 mph - 0.01 in Rain Rain
9:55 AM 40.3 °F 33.4 °F - N/A% 29.25 in 7.0 mi SSW 11.5 mph 16.1 mph 0.01 in Rain Light Rain
10:15 AM 40.1 °F 34.7 °F - N/A% 29.26 in 10.0 mi South 8.1 mph - 0.02 in Rain Light Rain
10:35 AM 40.1 °F 35.3 °F - N/A% 29.27 in 7.0 mi South 6.9 mph - 0.03 in Rain Rain
10:55 AM 40.1 °F 35.3 °F - N/A% 29.28 in 10.0 mi South 6.9 mph - 0.05 in Rain Light Rain
11:15 AM 40.5 °F 35.8 °F - N/A% 29.29 in 7.0 mi South 6.9 mph - N/A Rain Light Rain
11:35 AM 41.0 °F 34.7 °F - N/A% 29.30 in 7.0 mi SSW 10.4 mph - N/A Rain Light Rain
11:55 AM 41.9 °F 38.2 °F - N/A% 29.31 in 7.0 mi SSW 5.8 mph - 0.01 in Rain Light Rain
12:15 PM 41.9 °F 35.9 °F - N/A% 29.32 in 7.0 mi SSW 10.4 mph - N/A   Light Drizzle
12:35 PM 41.2 °F 35.0 °F - N/A% 29.32 in 7.0 mi SSW 10.4 mph - N/A   Light Drizzle
12:55 PM 41.9 °F 35.9 °F - N/A% 29.33 in 5.0 mi SSW 10.4 mph - N/A   Light Drizzle
1:15 PM 41.9 °F 36.9 °F - N/A% 29.33 in 5.0 mi SW 8.1 mph - N/A   Light Drizzle
1:35 PM 41.9 °F 38.2 °F - N/A% 29.34 in 7.0 mi SW 5.8 mph - N/A   Drizzle
1:55 PM 41.7 °F 38.8 °F - N/A% 29.35 in 5.0 mi SSW 4.6 mph - N/A Rain Rain
2:15 PM 41.9 °F 39.0 °F - N/A% 29.35 in 7.0 mi SSW 4.6 mph - 0.01 in   Drizzle
2:35 PM 41.9 °F 38.2 °F - N/A% 29.36 in 5.0 mi SSW 5.8 mph - 0.01 in Rain Rain
2:55 PM 41.9 °F 37.5 °F - N/A% 29.36 in 7.0 mi SSW 6.9 mph - 0.02 in Rain Light Rain
3:15 PM 41.9 °F 37.5 °F - N/A% 29.37 in 10.0 mi SSW 6.9 mph - N/A   Drizzle
3:35 PM 41.9 °F 39.0 °F - N/A% 29.38 in 10.0 mi SSW 4.6 mph - N/A   Drizzle
3:55 PM 42.3 °F 38.6 °F - N/A% 29.39 in 10.0 mi SW 5.8 mph - N/A   Overcast
4:15 PM 42.3 °F 38.6 °F - N/A% 29.40 in 10.0 mi SW 5.8 mph - N/A   Overcast
4:35 PM 42.3 °F 39.4 °F - N/A% 29.41 in 10.0 mi SSW 4.6 mph - N/A   Overcast
4:55 PM 42.4 °F 39.6 °F - N/A% 29.41 in 10.0 mi SSW 4.6 mph - N/A   Overcast
5:15 PM 42.4 °F 39.6 °F - N/A% 29.42 in 10.0 mi SSW 4.6 mph - N/A   Light Drizzle
5:35 PM 42.4 °F - - N/A% 29.43 in 10.0 mi Calm Calm - N/A   Overcast
5:55 PM 42.4 °F - - N/A% 29.44 in 10.0 mi Calm Calm - N/A Rain Rain
6:15 PM 42.3 °F 40.5 °F - N/A% 29.44 in 10.0 mi SSW 3.5 mph - N/A   Drizzle
6:35 PM 42.1 °F 40.2 °F - N/A% 29.45 in 10.0 mi SW 3.5 mph - N/A   Drizzle
6:55 PM 42.1 °F 37.7 °F - N/A% 29.46 in 10.0 mi WSW 6.9 mph - 0.01 in Rain Rain
7:15 PM 41.9 °F 40.0 °F - N/A% 29.47 in 10.0 mi WSW 3.5 mph - N/A   Mostly Cloudy
7:35 PM 41.9 °F - - N/A% 29.47 in 10.0 mi Calm Calm - N/A   Scattered Clouds
7:55 PM 41.5 °F - - N/A% 29.48 in 10.0 mi Calm Calm - N/A   Scattered Clouds
8:15 PM 41.5 °F - - N/A% 29.49 in 10.0 mi Calm Calm - N/A   Scattered Clouds
8:55 PM 41.4 °F - - N/A% 29.50 in 10.0 mi Calm Calm - N/A   Scattered Clouds
9:15 PM 41.5 °F - 29.8 °F 63% 29.51 in 10.0 mi Calm Calm - N/A   Mostly Cloudy
9:35 PM 41.4 °F - - N/A% 29.51 in 10.0 mi Calm Calm - N/A   Overcast
9:55 PM 41.2 °F - - N/A% 29.52 in 10.0 mi Calm Calm - N/A   Overcast
10:15 PM 41.2 °F - - N/A% 29.52 in 10.0 mi Calm Calm - N/A   Mostly Cloudy
10:35 PM 41.2 °F - - N/A% 29.52 in 10.0 mi Calm Calm - N/A   Overcast
10:55 PM 41.2 °F - - N/A% 29.53 in 10.0 mi Calm Calm - N/A   Overcast
11:15 PM 41.4 °F 38.4 °F 29.3 °F 62% 29.52 in 10.0 mi WSW 4.6 mph - N/A   Light Drizzle
11:35 PM 41.5 °F 39.6 °F 26.6 °F 55% 29.52 in 10.0 mi WSW 3.5 mph - N/A   Overcast
11:55 PM 41.7 °F 38.8 °F 24.8 °F 51% 29.52 in 10.0 mi WSW 4.6 mph - N/A   Overcast